Location: The Saddle
(36.8333°N, 80.3417°W)
Time: 04:17:28
(UTC-04:00)

Vanguard 3 - Pass Details

Date: 02 March 2024
Orbit: 510 x 3234 km, 33.3° (Epoch: 24 April)

Event Time Altitude Azimuth Distance (km) Brightness Sun altitude
Rises 19:09:33 0° 241° (WSW) 5,892 12.7 -11.3°
Reaches altitude 10° 19:12:57 10° 239° (WSW) 5,173 12.2 -11.9°
Maximum altitude 19:29:33 69° 161° (SSE) 3,309 10.1 -15.3°
Enters shadow 19:44:50 21° 86° (E) 5,163 10.6 -18.3°
